www.pogodaiklimat.ru

Погода и климат >> Архив погоды >> Россия >> Камчатский край >> Мыс Лопатка


ПОГОДА на Мысе Лопатка

  • Прогноз погоды на Мысе Лопатка
  • Монитор погоды на Мысе Лопатка

АРХИВ ПОГОДЫ на Мысе Лопатка

Время (UTC), дата Ветер
(напр.,м/с)
 
Видим.   Явления Облачность Т
(С)
Тd
(С)
f
(%)
Тe
(С)
Тes
(С)
Комфортность P
(гПа)
Po
(гПа)
Тmin
(С)
Tmax
(С)
R
(мм)
R24
(мм)
S
(см)
15 13.03 В 19-25
{25}
4000 м слаб. ливневой снег {метель} 10/10 300 м
[Cb cap]
-2.2 -3.0 94 -14 -14 1001.1 994.9
18 13.03 В 16-20
{25}
20 км {ливн. осадки, метель} 10/10 600 м
[Sc]
-1.9 -3.5 89 -12 -12 1001.5 995.2
21 13.03 В 19-24
{24}
50 км 9/1 600 м
[Sc Ac As Ci sp]
-1.6 -3.8 85 -13 -13 1001.1 994.9 -2.3 0.0 22
00 14.03 В 17-22
{24}
50 км 8/1 600 м
[Sc Ac As Cc]
-1.6 -3.6 86 -12 -12 1002.0 995.7
03 14.03 В 14-17
{22}
50 км 8/1 600 м
[Sc Ac trans Ci sp]
-1.0 -4.6 77 -11 -11 1002.0 995.7
06 14.03 СВ 8-10
{17}
50 км 9/9 600 м
[Sc]
-1.2 -4.1 81 -9 -9 1002.5 996.2
09 14.03 В 9-12
{13}
20 км 8/3 600 м
[Sc Ac trans]
-2.2 -4.6 84 -11 -11 1003.2 996.9 -1.0
12 14.03 В 10-13
{13}
20 км 8/0
[Ci fib]
-2.2 -5.4 79 -11 -11 1003.0 996.7
15 14.03 В 8-10
{13}
20 км 6/0
[Ci fib]
-2.8 -6.1 78 -11 -11 1003.1 996.8
18 14.03 СВ 4
{10}
20 км 8/3 600 м
[Sc Ci fib]
-3.0 -6.1 79 -9 -9 1003.7 997.3
21 14.03 СЗ 5 50 км 9/1 600 м
[Sc Ci fib]
-2.5 -4.0 89 -9 -9 1004.6 998.3 -3.1 22
00 15.03 СЗ 7 50 км 8/8 600 м
[Sc]
-3.0 -4.6 89 -11 -11 1005.9 999.6
03 15.03 СЗ 11-13
{13}
50 км 6/1 600 м
[Sc Ac trans Ci fib]
-4.3 -7.6 78 -14 -14 1006.3 999.9
06 15.03 СЗ 13-16
{16}
50 км 10/1 600 м
[Sc Cs]
-4.9 -8.7 75 -15 -15 1007.1 1000.7
09 15.03 СЗ 13-15
{16}
20 км 10/0
[Cs]
-5.2 -9.2 73 -16 -16 1008.5 1002.1 -2.3
12 15.03 СЗ 14-16
{18}
20 км 10/0
[Cs]
-5.2 -8.7 76 -16 -16 1009.4 1003.0
15 15.03 СЗ 16-20
{20}
20 км 10/0
[Cs]
-5.8 -9.9 73 -17 -17 1009.6 1003.2
18 15.03 СЗ 16-20
{20}
20 км 4/0
[Ci sp]
-5.6 -9.4 75 -17 -17 1010.5 1004.1
21 15.03 С 14-16
{20}
50 км 10/0
[Cs]
-5.2 -8.9 75 -16 -16 1012.7 1006.2 -5.8 21
00 16.03 СЗ 11-13
{17}
50 км 10/0
[Cs]
-4.7 -7.6 80 -15 -14 1014.1 1007.6
03 16.03 СЗ 10-12
{13}
50 км 10/1 600 м
[Sc Cs]
-4.1 -6.7 82 -13 -13 1014.8 1008.3
06 16.03 СЗ 9-11
{12}
20 км 8/8 600 м
[Sc Ci sp]
-3.0 -5.7 82 -12 -12 1014.9 1008.4
09 16.03 СЗ 8-10
{12}
20 км 8/8 600 м
[Sc]
-2.9 -6.0 79 -11 -11 1016.2 1009.7 -2.7
12 16.03 СЗ 5
{10}
20 км в посл. час ливневой снег 3/3 600 м
[Sc diur, vesp]
-4.1 -5.5 90 -11 -11 1016.3 1009.8
15 16.03 СЗ 5 4000 м слаб. ливневой снег 9/9 600 м
[Cb cap]
-4.0 -4.6 96 -11 -11 1015.8 1009.3
18 16.03 СЗ 3 20 км в посл. час ливневой снег 3/3 600 м
[Sc diur, vesp]
-4.4 -5.5 92 -10 -10 1014.1 1007.6
21 16.03 С 1 50 км 1/1 600 м
[Sc]
-3.8 -6.0 85 -6 -5 1013.5 1007.0 -5.1 0.2 21
00 17.03 З 3 50 км 3/1 600 м
[Sc Ac trans Ci fib]
-2.7 -5.6 80 -8 -3 1012.2 1005.8
03 17.03 СЗ 4 50 км 3/1 600 м
[Sc Ci fib]
-2.6 -5.7 79 -8 -4 1010.3 1004.0
06 17.03 СЗ 4 50 км 3/1 600 м
[Sc Ci fib]
-3.0 -6.1 79 -9 -8 1009.4 1003.0
09 17.03 СЗ 6 20 км 1/1 600 м
[Sc]
-3.7 -6.4 82 -11 -11 1009.8 1003.4 -1.7
12 17.03 СЗ 7 20 км 8/8 600 м
[Sc]
-2.5 -6.0 77 -10 -10 1009.8 1003.5
15 17.03 З 4 20 км 6/6 600 м
[Sc]
-2.9 -5.7 81 -9 -9 1009.3 1002.9
18 17.03 СЗ 6 4000 м слаб. ливневой снег 10/10 300 м
[Cb cap]
-3.1 -4.1 93 -11 -11 1008.9 1002.5
21 17.03 З 7 20 км в посл. час ливневой снег 3/1 600 м
[Cb calv Ac trans Ci sp]
-3.1 -3.8 95 -11 -11 1009.1 1002.7 -4.4 0.6 21
00 18.03 СЗ 4 50 км {ливн. осадки} 3/1 600 м
[Sc diur, vesp Ci fib]
-2.6 -3.9 91 -9 -4 1009.4 1003.1
03 18.03 ЮЗ 4 4000 м слаб. ливневой снег 9/9 300 м
[Cb cap]
-2.3 -3.9 89 -8 -8 1008.2 1001.9
06 18.03 СЗ 5 4000 м слаб. ливневой снег 10/10 300 м
[Cb cap]
-2.9 -3.3 97 -10 -10 1007.7 1001.4
09 18.03 СЗ 5 20 км {ливн. осадки} 10/3 600 м
[Sc As trans]
-2.1 -4.1 86 -9 -9 1008.2 1001.9 -1.9 0.3
12 18.03 З 3
{11}
4000 м слаб. ливневой снег {метель} 10/10 300 м
[Cb cap]
-2.9 -3.7 94 -8 -8 1008.5 1002.2
15 18.03 ЮЗ 3 4000 м слаб. ливневой снег 10/10 300 м
[Cb cap]
-3.2 -3.7 96 -9 -9 1008.3 1001.9
18 18.03 З 6
{10}
20 км {ливн. осадки} 9/9 600 м
[Sc]
-2.3 -3.1 94 -10 -10 1008.6 1002.3
21 18.03 ЮЗ 3
{10}
20 км 3/1 600 м
[Sc Ci fib]
-2.9 -4.5 89 -8 -7 1008.9 1002.5 -3.4 0.5 25
00 19.03 ЮЗ 5 50 км 1/0
[Ci fib]
-0.9 -4.1 79 -7 -3 1008.6 1002.3
03 19.03 Ю 9-11
{12}
20 км 9/9 600 м
[Sc]
-0.4 -2.8 84 -8 -8 1006.4 1000.1
06 19.03 Ю 8-12
{14}
4000 м слаб. ливневой снег {метель} 10/10 300 м
[Cb cap]
-0.4 -1.2 94 -8 -8 1002.6 996.3
09 19.03 Ю 15-17
{17}
2000 м ливневой снег {метель} 10/10 200 м
[Cb cap]
-0.3 -0.4 99 -10 -10 997.4 991.2 -0.1 1
12 19.03 Ю 10-13
{17}
2000 м ливневой снег {метель} 10/10 200 м
[Cb cap]
-0.2 -0.2 100 -9 -9 992.4 986.2
15 19.03 ЮЗ 7
{14}
4000 м слаб. ливневой снег {метель} 9/9 300 м
[Cb cap]
-0.8 -0.9 99 -8 -8 990.8 984.6
18 19.03 С 3 20 км {ливн. осадки, метель} 10/10 600 м
[Sc]
-1.4 -1.6 99 -7 -7 991.1 984.9
21 19.03 С 18-21
{21}
2000 м слаб. ливневой снег {метель} 9/9 300 м
[Cb cap]
-2.3 -2.4 99 -14 -14 992.8 986.6 -2.3 2 24
00 20.03 СЗ 21-25
{29}
20 км сильный позёмок {ливн. осадки} 8/8 600 м
[Sc Ci sp]
-4.4 -5.0 96 -17 -17 998.2 991.8 -4.5
03 20.03 СЗ 22-26
{27}
20 км сильный позёмок 9/9 600 м
[Sc]
-5.5 -6.7 91 -19 -19 1001.0 994.6
06 20.03 СЗ 20-25
{28}
20 км сильный позёмок 8/8 600 м
[Sc]
-5.7 -8.2 82 -18 -18 1003.1 996.7
09 20.03 СЗ 17-20
{25}
20 км позёмок 9/9 600 м
[Sc]
-5.9 -8.9 79 -18 -18 1005.6 999.2 -2.3 0.2
12 20.03 СЗ 16-20
{22}
2000 м слаб. ливневой снег {метель} 9/9 300 м
[Cb cap]
-6.8 -7.9 92 -19 -19 1006.1 999.7

 

Местоположение метеостанции Мыс Лопатка (Камчатский край, Россия): широта 50.87 долгота 156.60 высота над уровнем моря 50 м.

В архиве по умолчанию представлена погода на Мысе Лопатка за последнюю неделю. Архивные данные за месяц целиком и за предыдущие месяцы, начиная с января 2011 года, Вы можете получить, выбрав интересующий диапазон дат из раскрывающегося списка и нажав кнопку "Ввод!".


*Определитесь, кто Вы:
робот инопланетянин человек

Внимание! Время в таблицах - всемирное. Для получения местного времени необходимо прибавить поправку, которая равна 12 ч.

Смотрите также архив погоды в соседних городах и на ближайших метеорологических станциях:

Погода в Северо-Курильске (Сахалинская область, Россия) (41 км)
Погода в Озерной (Камчатский край, Россия) (69 км)
Погода в Водопадной (Камчатский край, Россия) (144 км)
Погода в Большерецке (Камчатский край, Россия) (219 км)
Погода в Начиках (Камчатский край, Россия) (261 км)
Погода в Петропавловск-Камчатском (Камчатский край, Россия) (261 км)
Погода в Петропавловском Маяке (Камчатский край, Россия) (266 км)
Погода в Сосновке (Камчатский край, Россия) (272 км)
Погода в Петропавловск-Камч. 2 (Камчатский край, Россия) (278 км)
Погода в Пущино (Камчатский край, Россия) (380 км)

Пояснения к столбцам:

Ветер - указаны скорость ветра в м/с - средняя за 10 мин, порывы в срок и между сроками (в фигурных скобках) и направление, откуда дует ветер: С - северный, СВ - северо-восточный, В - восточный, ЮВ - юго-восточный, Ю - южный, ЮЗ - юго-западный, З - западный, СЗ - северо-западный.
Видимость - горизонтальная дальность видимости в метрах или километрах. При видимости от 1 до 10 км при отсутствии осадков обычно наблюдается дымка, при ухудшении видимости до 1 км и менее - туман. В сухую погоду видимость может ухудшаться дымом, пылью или мглою.
Явления - указаны атмосферные явления, наблюдавшиеся в срок или в последний час перед сроком; фигурными скобками обозначены явления, наблюдавшиеся между сроками (за 1-3 часа до срока); квадратными скобками обозначены град или гололедные отложения с указанием их диаметра в мм.
Облачность - указаны через наклонную черту общая и нижняя облачность в баллах и высота нижней границы облаков в метрах; квадратными скобками обозначены формы облаков: Ci - перистые, Cs - перисто-слоистые, Cc - перисто-кучевые, Ac - высококучевые, As - высокослоистые, Sc - слоисто-кучевые, Ns - слоисто-дождевые, Cu - кучевые, Cb - кучево-дождевые. Подробнее классификацию облаков см. в Атласе облаков (PDF).
T - Температура воздуха - температура, измеренная на высоте 2 м над землей.
Td - Температура точки росы - температура, при понижении до которой содержащийся в воздухе водяной пар достигнет насыщения.
f - Относительная влажность воздуха - влажноcть воздуха, измеренная на высоте 2 м над землей.
Te - Эффективная температура - температура, которую ощущает одетый по сезону человек в тени. Характеристика душности погоды. При расчете учитывается влияние влажности воздуха и скорости ветра на теплоощущения человека.
Tes - Эффективная температура на солнце - температура, которую ощущает человек, с поправкой на солнечный нагрев. Характеристика знойности погоды. Зависит от высоты солнца над горизонтом, облачности и скорости ветра. Ночью, в пасмурную погоду, а также при ветре 12 м/с и более поправка равна нулю.
P - Атмосферное давление - приведенное к уровню моря атмосферное давление.
Po - Атмосферное давление - измеренное на уровне метеостанции атмосферное давление.
Tmin - Минимальная температура - минимум температуры воздуха на высоте 2 м над землей.
Tmax - Максимальная температура - максимум температуры воздуха на высоте 2 м над землей.
R - Количество осадков - Количество выпавших осадков за период времени, мм. При наведении курсора мыши на число - период времени, за который выпало указанное количество осадков.
R24 - Количество осадков - Количество выпавших осадков за 24 часа, мм.
S - Снежный покров - Высота снежного покрова, см. При наведении курсора мыши на число - состояние снежного покрова и степень покрытия местности в баллах.